Aérodrome :
LOGIN :

S'inscrire | Disclaimer

   EN    FR    IT 

 










Légende :    VFR   VFR Marginal   IFR   IFR Intensif   IFR Très Intensif
Visi : 
Plafond : 
>= 8 km
>= 3000ft
5 à 8 km
1000 à 3000 ft
1500m à 5 km
500 à 1000 ft
800 à 1500m
200 à 500 ft
< 800m
< 200 ft
Symboles :   Orages  Brouillard  Fortes neiges  Fortes précipitations  Vent > 20 kt
SIGMETs :   Divers  Orages  Givrage  Turbulence  Onde Orograph.  Cendres Volcan.







- Altitude de l'aérodrome : 74 ft
- Code IATA : LRH
- Voir les cartes d'approche


LFBH - La Rochelle Ile de Ré

DERNIER METAR :
  • 231130Z AUTO 07014KT CAVOK 24/07 Q1024 NOSIG

METARs EXPIRÉS :
  • 231100Z AUTO 06015KT CAVOK 23/07 Q1024 NOSIG
  • 231030Z AUTO 06014KT 030V090 CAVOK 23/07 Q1024 NOSIG
  • 231000Z AUTO 07015KT 040V100 CAVOK 22/06 Q1025 NOSIG
  • 230930Z AUTO 07014KT 040V100 CAVOK 21/06 Q1025 NOSIG
  • 230900Z AUTO 07014KT CAVOK 20/07 Q1025 NOSIG

TAF TAF LFBH
Valide du 23 à 12h jusqu'au 24 à 12h UTC


231100Z 2312/2412 06014KT CAVOK
ATIS : +33 5 46 00 13 92
Pas de NOTAMs connus pour ce terrain.



MET'MAP, la Météo Aéronautique d'un coup d'oeil ! - Copyright ORBIFLY Décembre 2007 - Disclaimer

ORBIFLY MET'MAP TEAM :

Programmation & Développement : Alexandra Zaïnal
Conception & Développement : Baudouin d'Aumeries
Co-Programmation & Développement : Marc-Olivier Méhu
Soutien technique & logistique : Manuel Goepfert

Contact : metmap@orbifly.com




SOURCES & CREDITS :

   NOAA